Orbital Elements at Epoch 2459000.5 (2020-May-31.0) TDB
Reference: JPL 14 (heliocentric ecliptic J2000)
Element | Value | Uncertainty (1-sigma) | Units |
e | .1421575907114974 | 8.1442e-08 | |
a | 2.57328487992572 | 1.9365e-08 | au |
q | 2.207472901181154 | 2.0617e-07 | au |
i | 15.15823689286684 | 9.7175e-06 | deg |
node | 18.30204271835662 | 2.5669e-05 | deg |
peri | 302.9311205000048 | 3.8992e-05 | deg |
M | 133.9906265944947 | 3.5959e-05 | deg |
tp | 2458439.320049466225 (2018-Nov-16.82004947) | 0.00014611 | TDB |
period | 1507.753096815951 4.13 | 1.7019e-05 4.66e-08 | d yr |
n | .2387658833268141 | 2.6952e-09 | deg/d |
Q | 2.939096858670285 | 2.2118e-08 | au |
|
| | Orbit Determination Parameters
Additional Information
|